This is the latest recevied weather packets stored in our database for station/object KC4GS-13. If no packets are shown the sender has not sent any weather packets the latest 10 day(s).
| Time | Temp. | Humidity | Pressure | Rain* | Wind** | Luminosity | Snow |
|---|---|---|---|---|---|---|---|
| 1787502023 | 33.33° C | 53% | 1016.6 hPa | 0 mm | - | 155 W/m² | - |
| 1787501719 | 33.33° C | 53% | 1016.7 hPa | 0 mm | - | 144 W/m² | - |
| 1787501415 | 33.33° C | 53% | 1016.7 hPa | 0 mm | - | 183 W/m² | - |
| 1787501111 | 32.78° C | 54% | 1016.8 hPa | 0 mm | - | 354 W/m² | - |
| 1787500807 | 32.78° C | 55% | 1017 hPa | 0 mm | - | 212 W/m² | - |
| 1787500502 | 32.78° C | 55% | 1016.8 hPa | 0 mm | - | 197 W/m² | - |
| 1787500197 | 32.78° C | 55% | 1017.1 hPa | 0 mm | - | 772 W/m² | - |
| 1787499897 | 32.78° C | 56% | 1017.1 hPa | 0 mm | - | 656 W/m² | - |
| 1787499591 | 32.78° C | 58% | 1017.1 hPa | 0 mm | - | 362 W/m² | - |
| 1787499286 | 32.22° C | 57% | 1016.9 hPa | 0 mm | - | 806 W/m² | - |
| 1787498983 | 31.67° C | 58% | 1017.1 hPa | 0 mm | - | 580 W/m² | - |
| 1787498680 | 31.67° C | 58% | 1016.9 hPa | 0 mm | - | 342 W/m² | - |
| 1787498376 | 31.11° C | 61% | 1017 hPa | 0 mm | - | 488 W/m² | - |
| 1787498072 | 31.11° C | 61% | 1017.2 hPa | 0 mm | - | 345 W/m² | - |
| 1787497767 | 31.11° C | 62% | 1017 hPa | 0 mm | - | 613 W/m² | - |
| 1787497463 | 30.56° C | 62% | 1017 hPa | 0 mm | - | 698 W/m² | - |
| 1787497161 | 30° C | 64% | 1016.9 hPa | 0 mm | - | 578 W/m² | - |
| 1787496856 | 30° C | 64% | 1017.3 hPa | 0 mm | - | 99 W/m² | - |
| 1787496552 | 30° C | 64% | 1017.3 hPa | 0 mm | - | 100 W/m² | - |
| 1787496247 | 29.44° C | 68% | 1017.1 hPa | 0 mm | - | 140 W/m² | - |
| 1787495945 | 29.44° C | 67% | 1017.1 hPa | 0 mm | - | 102 W/m² | - |
| 1787495641 | 29.44° C | 70% | 1017.1 hPa | 0 mm | - | 127 W/m² | - |
| 1787495337 | 29.44° C | 70% | 1017.2 hPa | 0 mm | - | 151 W/m² | - |
| 1787495033 | 29.44° C | 70% | 1017.1 hPa | 0 mm | - | 100 W/m² | - |
| 1787494733 | 28.89° C | 70% | 1017.2 hPa | 0 mm | - | 158 W/m² | - |
* Rain latest hour (hover to see other rain measurements)
** Current wind speed in m/s (hover to see current wind gust speed)